Location: Newark
(7.0858°N, 171.3717°E)
Time: 17:03:54
(UTC+00:00)

Transit 2A - Pass Details

Date: 30 November 2020
Orbit: 598 x 960 km, 66.7° (Epoch: 20 January)

Event Time Altitude Azimuth Distance (km) Brightness Sun altitude
Rises 15:26:04 0° 349° (N) 2,983 - -43.6°
Reaches altitude 10° 15:28:30 10° 355° (N) 2,027 - -43.1°
Maximum altitude 15:32:50 46° 69° (ENE) 831 - -42.1°
Drops below altitude 10° 15:36:58 10° 142° (SE) 1,936 - -41.1°
Exits shadow 15:37:58 - 146° (SE) 2,327 9.1 -40.9°
Sets 15:39:14 0° 149° (SSE) 2,832 9.6 -40.6°
